Back to catalog

SL-6 R/B(2)

AliveHEO
NORAD 18106·ROCKET BODY·🇷🇺 Russia

Launched Jun 12, 1987 from Plesetsk Cosmodrome

Loading…

Next Passes (next 24 hours)

TLE

FreshSource: Space-Track

Epoch: Sep 14, 2026, 04:23 UTC

1 18106U 87050D   26257.18267253 -.00000459  00000-0  00000-0 0  9991
2 18106  70.2430 117.6928 5464844  24.3473 124.3504  2.03576994289177

Track SL-6 R/B(2) in real time with AllMySat

Download on the App Store